This demonstration page uses our WeatherBlox Daily Observations layout. Learn more.

Left ArrowRight Arrow

Hourly Observations for August 1, 2018

Temp ( °F °C ) Dew Point ( °F °C ) Humidity (%) Winds ( mph kmh ) Pressure ( in mb ) Visibility ( mi km ) Precip ( " mm )
12:53 am 00:53 Clear 68 20 51 10.6 55 55 ENE 13 20 30.01 1016 10 16 0.00 0.00
1:53 am 01:53 Clear 66 18.9 50 10 56 56 E 16 26 29.99 1016 10 16 0.00 0.00
2:53 am 02:53 Clear 64 17.8 50 10 60 60 E 14 22 29.99 1016 10 16 0.00 0.00
3:53 am 03:53 Clear 62 16.7 50 10 65 65 E 13 20 29.98 1015 10 16 0.00 0.00
4:53 am 04:53 Clear 61 16.1 50 10 67 67 E 12 19 29.97 1015 10 16 0.00 0.00
5:53 am 05:53 Clear 59 15 50 10 72 72 ENE 9 15 29.96 1015 10 16 0.00 0.00
6:53 am 06:53 Sunny 60 15.6 50 10 70 70 ENE 9 15 29.96 1015 10 16 0.00 0.00
7:53 am 07:53 Sunny 64 17.8 51 10.6 63 63 ENE 10 17 29.95 1014 10 16 0.00 0.00
8:53 am 08:53 Sunny 69 20.6 53 11.7 57 57 ENE 10 17 29.94 1014 10 16 0.00 0.00
9:53 am 09:53 Sunny 78 25.6 54 12.2 43 43 ENE 8 13 29.92 1013 10 16 0.00 0.00
10:53 am 10:53 Sunny 81 27.2 52 11.1 37 37 undefined N/A 29.91 1013 10 16 0.00 0.00
11:53 am 11:53 Sunny 85 29.4 52 11.1 32 32 NE 3 6 29.88 1012 10 16 0.00 0.00
12:53 pm 12:53 Sunny 87 30.6 52 11.1 30 30 VRB 3 6 29.85 1011 10 16 0.00 0.00
1:53 pm 13:53 Sunny 89 31.7 51 10.6 27 27 Calm 29.82 1010 10 16 0.00 0.00
2:53 pm 14:53 Sunny 92 33.3 49 9.4 23 23 VRB 5 7 29.80 1009 10 16 0.00 0.00
3:53 pm 15:53 Sunny 94 34.4 48 8.9 21 21 undefined N/A 29.78 1009 10 16 0.00 0.00
4:53 pm 16:53 Sunny 94 34.4 46 7.8 19 19 S 7 11 29.76 1008 10 16 0.00 0.00
5:53 pm 17:53 Sunny 95 35 45 7.2 18 18 SW 7 11 29.74 1007 10 16 0.00 0.00
6:53 pm 18:53 Sunny 94 34.4 45 7.2 18 18 W 6 9 29.72 1006 10 16 0.00 0.00
7:53 pm 19:53 Sunny 90 32.2 46 7.8 22 22 S 5 7 29.70 1006 10 16 0.00 0.00
8:53 pm 20:53 Sunny 80 26.7 57 13.9 45 45 SE 5 7 29.69 1006 10 16 0.00 0.00
9:53 pm 21:53 Clear 74 23.3 52 11.1 46 46 Calm 29.70 1006 10 16 0.00 0.00
10:53 pm 22:53 Clear 76 24.4 50 10 40 40 S 6 9 29.68 1005 10 16 0.00 0.00
11:53 pm 23:53 Clear 72 22.2 51 10.6 48 48 SW 3 6 29.67 1005 10 16 0.00 0.00

Powered by AerisWeather